Regional Weather Roundup
Issued by NWS Midland/Odessa, TX

Skip options and go directly to product.
Home | Oldest Version | Next Version | Current Version | All | Text Only | Save Text | Print | Product List | Glossary On

Skip product version selection by date and time.   
479
ASUS44 KMAF 300010
RWRMAF
MIDLAND AREA WEATHER ROUNDUP
NATIONAL WEATHER SERVICE MIDLAND TX
700 PM CDT MON SEP 29 2014

...IN SOUTHWEST TEXAS AND SOUTHEAST NEW MEXICO...

CITY           SKY/WX    TMP DP  RH WIND       PRES   REMARKS
ALPINE         MOCLDY    78  56  46 SE13      30.07S
ANDREWS        FAIR      79  55  44 SE12      29.97S
ARTESIA        NOT AVBL
BIG SPRING     PTCLDY    82  54  38 E8        29.97S
CARLSBAD       CLEAR     80  58  46 SE17      29.90F
DRYDEN           N/A     83  59  44 E15       29.93S
FORT STOCKTON  CLEAR     80  57  45 SE16G25   29.95R
GUAD PASS      PTCLDY    72  60  66 E15       30.07R
HOBBS          CLEAR     75  57  53 SE13      29.97F
MARFA          CLEAR     79  54  41 S8        30.05F
MIDLAND AIRPK  NOT AVBL
MIDLAND INTL   PTCLDY    82  54  37 SE14      29.95S
ODESSA         PTCLDY    80  54  40 S13       29.96S
PECOS          CLEAR     83  56  39 E15       29.89F
PRESIDIO       FAIR      87  56  34 CALM      29.89S
SEMINOLE       PTCLDY    77  55  46 SE12      29.98S
SNYDER         CLEAR     79  57  47 SE7       29.96S
WINK           PTCLDY    82  57  42 SE17      29.91F
$$
...OTHER STATIONS IN TEXAS...

CITY           SKY/WX    TMP DP  RH WIND       PRES   REMARKS
ABILENE        PTCLDY    84  55  36 SE12      29.94S
AMARILLO       PTCLDY    74  55  51 S22       29.96R
AUSTIN         PTCLDY    84  63  49 E6        29.89S
BROWNSVILLE    PTCLDY    81  77  88 NE7       29.83R
CORPUS CHRISTI MOCLDY    82  74  76 E9        29.86R
DALLAS FTW     PTCLDY    85  62  46 E12       29.90S
DEL RIO        CLEAR     85  64  49 SE3       29.88S
EL PASO        MOSUNNY   88  50  27 SW8       29.89S
HOUSTON INT    PTCLDY    82  72  71 NE6       29.87R
LUBBOCK        PTCLDY    75  57  53 S16       29.96F
SAN ANGELO     CLEAR     83  57  41 E13       29.92F
SAN ANTONIO    PTCLDY    86  59  39 E6        29.90S
WACO           CLEAR     85  57  38 E6        29.89S
WICHITA FALLS  NOT AVBL
$$
...OTHER LOCATIONS IN NEW MEXICO...

CITY           SKY/WX    TMP DP  RH WIND       PRES   REMARKS
ALAMAGORDO     MOCLDY    82  54  36 S13       29.92S
ALBUQUERQUE    PTCLDY    76  38  25 W20G29    29.95R
CANNON AFB     CLEAR     74  56  51 S20G32    29.95R
CLOVIS           N/A     73  55  53 S22       29.99R
HOLLOMAN AFB   PTCLDY    83  55  37 S14       29.89S
ROSWELL        CLEAR     79  59  50 S24G33    29.90S
RUIDOSO        PTCLDY    68  48  49 SW16G24   30.09F
SANTA FE       PTCLDY    66  38  35 W14       30.01S
TRUTH OR CONSE MOSUNNY   80  51  36 SW10      29.93F
TUCUMCARI      MOCLDY    79  51  37 S24G35    29.88R
$$

USA.gov is the U.S. government's official web portal to all federal, state and local government web resources and services.